This demonstration page uses our WeatherBlox Daily Observations layout. Learn more.

Left ArrowRight Arrow

38.83388, -104.82136

Hourly Observations for August 12, 2022

Temp ( °F °C ) Dew Point ( °F °C ) Humidity (%) Winds ( mph kmh ) Pressure ( in mb ) Visibility ( mi km ) Precip ( " mm )
12:54 am 00:54 Mostly Cloudy 66 18.9 48 8.9 52 52 E 7 11 30.04 1017 10 16 0.00 0.00
1:54 am 01:54 Mostly Cloudy 63 17.2 49 9.4 60 60 NE 7 11 30.03 1017 10 16 0.00 0.00
2:54 am 02:54 Mostly Cloudy 61 16.1 49 9.4 64 64 NNE 8 13 30.03 1017 10 16 0.00 0.00
3:54 am 03:54 Mostly Cloudy 58 14.4 49 9.4 72 72 N 8 13 30.04 1017 10 16 0.00 0.00
4:54 am 04:54 Mostly Cloudy 58 14.4 48 8.9 70 70 NNE 10 17 30.04 1017 10 16 0.00 0.00
5:54 am 05:54 Partly Cloudy 57 13.9 48 8.9 72 72 NNE 9 15 30.05 1018 10 16 0.00 0.00
6:54 am 06:54 Partly Cloudy 62 16.7 49 9.4 62 62 N 7 11 30.06 1018 10 16 0.00 0.00
7:54 am 07:54 Partly Cloudy 71 21.7 51 10.6 49 49 NNW 3 6 30.05 1018 10 16 0.00 0.00
8:46 am 08:46 Partly Cloudy 80 26.7 50 10 35 35 NNE 16 26 29.81 1010 10 16 0.00 0.00
8:54 am 08:54 Partly Cloudy 80 26.7 50 10 35 35 NNE 17 28 30.04 1017 10 16 0.00 0.00
9:54 am 09:54 Partly Cloudy 82 27.8 50 10 33 33 NNW 13 20 30.04 1017 10 16 0.00 0.00
10:54 am 10:54 Partly Cloudy 83 28.3 50 10 32 32 NW 9 15 30.04 1017 10 16 0.00 0.00
11:54 am 11:54 Mostly Sunny 85 29.4 50 10 30 30 NNW 8 13 30.02 1017 10 16 0.00 0.00
12:54 pm 12:54 Mostly Sunny 86 30 50 10 29 29 VRB 6 9 30.02 1017 10 16 0.00 0.00
1:54 pm 13:54 Mostly Sunny 88 31.1 49 9.4 26 26 VRB 5 7 30.01 1016 10 16 0.00 0.00
2:54 pm 14:54 Mostly Sunny 88 31.1 47 8.3 24 24 SSE 15 24 30.00 1016 10 16 0.00 0.00
3:54 pm 15:54 Mostly Sunny 88 31.1 46 7.8 23 23 E 7 11 29.99 1016 10 16 0.00 0.00
4:54 pm 16:54 Mostly Sunny 89 31.7 46 7.8 23 23 SSE 12 19 29.97 1015 10 16 0.00 0.00
5:54 pm 17:54 Mostly Sunny 88 31.1 44 6.7 22 22 SE 13 20 29.97 1015 10 16 0.00 0.00
6:54 pm 18:54 Mostly Cloudy 86 30 44 6.7 23 23 SE 13 20 29.96 1014 10 16 0.00 0.00
7:54 pm 19:54 Mostly Cloudy 80 26.7 45 7.2 29 29 ESE 9 15 29.96 1015 10 16 0.00 0.00
8:54 pm 20:54 Partly Cloudy 77 25 46 7.8 33 33 SE 5 7 29.96 1015 10 16 0.00 0.00
9:54 pm 21:54 Mostly Clear 73 22.8 47 8.3 39 39 Calm 29.98 1015 10 16 0.00 0.00
10:54 pm 22:54 Mostly Clear 72 22.2 46 7.8 40 40 Calm 29.99 1016 10 16 0.00 0.00
11:54 pm 23:54 Mostly Clear 67 19.4 47 8.3 49 49 NNE 9 15 30.01 1016 10 16 0.00 0.00

Powered by AerisWeather